Regional Weather Roundup
Issued by NWS Memphis, TN

Home | Current Version | Previous Version | Text Only | Print | Product List | Glossary On
Versions: 1 2 3 4 5 6 7 8 9 10 11 12 13 14 15 16 17 18 19 20 21 22 23 24 25 26 27 28 29 30 31 32 33 34 35 36 37 38 39 40 41 42 43 44 45 46 47 48 49 50
000
ASUS44 KMEG 261510
RWRMEG
MEMPHIS CWA HOURLY WEATHER ROUNDUP
NATIONAL WEATHER SERVICE MEMPHIS TN
900 AM CST WED NOV 26 2014

...WEST TENNESSEE...

CITY           SKY/WX    TMP DP  RH WIND       PRES   REMARKS
MEMPHIS INTL   PTSUNNY   42  27  55 S9        30.13S
NWS MEMPHIS      N/A     39 N/A N/A MISG        N/A
JACKSON        SUNNY     38  29  70 SE5       30.14F WCI  34
LEXINGTON      SUNNY     32  28  86 SE3       30.14S
SAVANNAH       SUNNY     34  30  86 CALM      30.16S
DYERSBURG      SUNNY     37  23  56 SE7       30.14S WCI  32
UNION CITY       N/A     34  28  80 SE9       30.11S VSB 1   WCI  26
PARIS          SUNNY     34  28  80 SE6       30.13F WCI  29
HUNTINGDON     SUNNY     33  29  86 SE5       30.14F WCI  28


...EASTERN ARKANSAS...

CITY           SKY/WX    TMP DP  RH WIND       PRES   REMARKS
JONESBORO      CLOUDY    37  31  78 S13       30.08F WCI  29
WEST MEMPHIS   PTSUNNY   39  31  72 S12       30.11F WCI  32
BATESVILLE     CLOUDY    39  28  65 S13       30.04S WCI  32
NEWPORT        CLOUDY    37  33  85 S7        30.08S WCI  31
WALNUT RIDGE     N/A     37  28  70 SE10      30.05F VSB 3/4 WCI  30
BLYTHEVILLE    MOSUNNY   47  31  53 S13       30.11F
NW BLYTHEVILLE PTSUNNY   39  30  70 S12       30.10  WCI  32
SEARCY         CLOUDY    34  33  96 CALM      30.07F
STUTTGART      PTSUNNY   43  34  70 S10       30.08F
PINE BLUFF     PTSUNNY   43  35  73 S7        30.08F
MONTICELLO     SUNNY     46  35  65 S8        30.12R


...NORTH MISSISSIPPI...

CITY           SKY/WX    TMP DP  RH WIND       PRES   REMARKS
TUPELO         SUNNY     39  30  70 S3        30.19S
OXFORD         SUNNY     37  27  65 S12       30.18S WCI  30
OLIVE BRANCH   MOSUNNY   37  32  81 S7        30.14S WCI  32
TUNICA         MOSUNNY   37  32  81 SE13      30.14F WCI  29
CLARKSDALE     MOSUNNY   39  32  75 SE10      30.15S WCI  32
CORINTH        SUNNY     37  30  75 SE3       30.17R
GRENADA        SUNNY     37  32  81 CALM      30.19S
GREENWOOD      SUNNY     44  32  62 S9        30.18S
COLUMBUS       SUNNY     38  32  77 SE1       30.21R
STARKVILLE     FAIR      37  32  81 CALM      30.21R
GOLDEN TRIANGL SUNNY     39  30  70 S5        30.20R


...SOUTHEAST MISSOURI...

CITY           SKY/WX    TMP DP  RH WIND       PRES   REMARKS
WEST PLAINS    CLOUDY    32  23  69 E6        30.01R WCI  26
POPLAR BLUFF   CLOUDY    35  29  78 CALM      30.10R
CAPE GIRARDEAU PTSUNNY   35  31  85 E5        30.12R WCI  31


...NORTHWEST ALABAMA...

CITY           SKY/WX    TMP DP  RH WIND       PRES   REMARKS
MUSCLE SHOALS  MOSUNNY   37  30  75 CALM      30.18R


...MIDDLE TENNESSEE...

CITY           SKY/WX    TMP DP  RH WIND       PRES   REMARKS
NASHVILLE      PTSUNNY   37  30  75 CALM      30.15S
CLARKSVILLE    SUNNY     32  29  88 SE3       30.15S FOG
COLUMBIA       SUNNY     36  36 100 CALM      30.14S


...WESTERN KENTUCKY...

CITY           SKY/WX    TMP DP  RH WIND       PRES   REMARKS
PADUCAH        SUNNY     34  30  85 SE6       30.13S WCI  29
FORT CAMPBELL  SUNNY     34  32  93 SE3       30.14S


...CENTRAL ARKANSAS...

CITY           SKY/WX    TMP DP  RH WIND       PRES   REMARKS
LITTLE ROCK    CLOUDY    39  32  76 S3        30.05F


SKY/WX REPORTED AS FAIR MEANS FEW OR NO CLOUDS BELOW
12 THOUSAND FEET.




USA.gov is the U.S. government's official web portal to all federal, state and local government web resources and services.